Regional Weather Roundup
Issued by NWS

Home | Current Version | Previous Version | Graphics & Text | Print | Product List | Glossary On
Versions: 1 2 3 4 5 6 7 8 9 10 11 12 13 14 15 16 17 18 19 20 21 22 23 24 25 26 27 28 29 30 31 32 33 34 35 36 37 38 39 40 41 42 43 44 45 46 47 48 49 50
243
ASUS43 KFSD 221210
RWRSD

WEATHER ROUNDUP FOR SOUTH DAKOTA
NATIONAL WEATHER SERVICE SIOUX FALLS SD
600 AM CST WED NOV 22 2017

NOTE: "FAIR" INDICATES FEW OR NO CLOUDS BELOW 12,000 FEET WITH NO
SIGNIFICANT WEATHER AND/OR OBSTRUCTIONS TO VISIBILITY.


SDZ001>005-009-010-012>017-221300-
NORTHWEST AND NORTH CENTRAL SOUTH DAKOTA

CITY           SKY/WX    TMP DP  RH WIND       PRES   REMARKS
BUFFALO          N/A     26  20  77 E3        29.93F
FAITH            N/A     21  14  74 S20       30.02F WCI   6
MOBRIDGE       CLOUDY    23  14  68 S13       30.08F WCI  11
$$

SDZ012>016-024>037-041>051-057-063-072>074-221300-
SOUTHWEST AND SOUTH CENTRAL SOUTH DAKOTA

CITY           SKY/WX    TMP DP  RH WIND       PRES   REMARKS
RAPID CTY ARPT CLOUDY    27  21  78 CALM      30.04S
PIERRE         CLOUDY    18  13  80 SE10      30.12F WCI   6
CUSTER         CLOUDY    42  20  41 W12       30.08F
ELLSWORTH AFB  CLOUDY    33  25  74 W7        30.02F WCI  26
PHILIP         CLOUDY    21  19  92 CALM      30.09F
PINE RIDGE     CLOUDY    34  28  79 W6        30.11S WCI  29
SPEARFISH      FAIR      50  27  40 W10       30.01F
WINNER         FAIR      29  17  61 S13       30.12F WCI  19
$$

SDZ004>011-016>023-039-040-221300-
NORTHEAST SOUTH DAKOTA

CITY           SKY/WX    TMP DP  RH WIND       PRES   REMARKS
ABERDEEN       CLEAR      6   4  91 S6        30.22F WCI  -4
WATERTOWN      CLOUDY    11   8  88 S6        30.21F WCI   1
BROOKINGS      CLOUDY    11   7  84 S8        30.26F WCI  -1
SISSETON         N/A     11   6  81 SE7       30.24F WCI   0
$$

SDZ017-020-022-023-036>040-048>070-221300-
SOUTHEAST SOUTH DAKOTA

CITY           SKY/WX    TMP DP  RH WIND       PRES   REMARKS
SIOUX FALLS    CLOUDY    14   8  77 CALM      30.29F
HURON          CLOUDY    13   8  81 S8        30.24F WCI   2
CHAMBERLAIN    CLOUDY    19  16  86 SE8       30.18F WCI   9
MITCHELL       CLOUDY    13   9  84 S7        30.27F WCI   3
YANKTON        CLOUDY    12   8  84 SE5       30.31F WCI   4
$$

ABBREVIATIONS USED IN REMARKS
   TC - TEMPERATURE IN CELSIUS
  WCI - WIND CHILL INDEX
   HX - HEAT INDEX
  VSB - VISIBILITY





USA.gov is the U.S. government's official web portal to all federal, state and local government web resources and services.